Flag for Botswana Weather past 2 weeks in Molepolole, Botswana

Now
81 °F

Sunny.


Feels Like: 79 °F
Forecast: 51 / 78 °F
Wind: 12 mph from West

Location: Seretse Khama International Airport

Current Time: Sep 1, 2015 at 5:18:46 PM

Latest Report: Sep 1, 2015 at 5:00 PM


Visibility: 10 mi

Pressure: 29.98 "Hg (26.32 "Hg at 1145m altitude)

Humidity: 13%

Dew point: 25 °F

Location of MolepololeLocation

Historic Weather in Molepolole — Graph

°F

Molepolole temperature yesterday

Maximum temperature yesterday: 91 °F (at 3:00 PM)
Minimum temperature yesterday: 61 °F (at 4:00 AM)
Average temperature yesterday: 78 °F

Past Weeks' High & Low Weather Summary

 TemperatureHumidityPressure
High91 °F (Aug 30, 2:00 PM)82% (Aug 24, 6:00 AM)30.36 "Hg (Aug 24, 6:00 AM)
Low48 °F (Aug 18, 7:00 AM)9% (Aug 30, 2:00 PM)29.92 "Hg (Aug 31, 4:00 PM)
Average72 °F34%30.15 "Hg
* Reported Aug 17 4:00 PM — Sep 1 4:00 PM, Molepolole, Weather by CustomWeather, © 2015

Note: Actual official high and low records may vary slightly from our data, if they occured in-between our weather recording intervals... More about our weather records

Advertising

Molepolole weather history for previous 24 hours

 ConditionsComfort  
Time TempWeatherWind HumidityBarometerVisibility
4:00 PM
Tue, Sep 1
82 °FPassing clouds.15 mph11%29.98 "HgN/A
3:00 PM82 °FPassing clouds.12 mph11%29.98 "HgN/A
2:00 PM82 °FPassing clouds.13 mph12%29.98 "HgN/A
1:00 PM81 °FPassing clouds.12 mph14%30.04 "HgN/A
12:00 PM79 °FSunny.8 mph15%30.04 "Hg10 mi
11:00 AM77 °FPassing clouds.14 mph17%30.07 "HgN/A
10:00 AM75 °FSunny.16 mph24%30.09 "Hg10 mi
9:00 AM70 °FSunny.15 mph38%30.07 "Hg10 mi
8:00 AM66 °FSunny.12 mph43%30.07 "Hg10 mi
7:00 AM64 °FSunny.5 mph46%30.04 "Hg10 mi
5:00 AM64 °FClear.5 mph34%30.01 "Hg10 mi
4:00 AM66 °FClear.6 mph35%29.98 "Hg10 mi
3:00 AM68 °FPassing clouds.5 mph28%29.98 "HgN/A
2:00 AM72 °FPassing clouds.5 mph25%29.98 "HgN/A
1:00 AM73 °FClear.9 mph23%29.95 "Hg10 mi
12:00 AM73 °FClear.9 mph22%29.95 "Hg10 mi
11:00 PM
Mon, Aug 31
75 °FClear.7 mph21%29.98 "Hg10 mi
10:00 PM77 °FClear.10 mph21%29.98 "Hg10 mi
9:00 PM79 °FClear.9 mph20%29.98 "Hg10 mi
8:00 PM79 °FClear.7 mph18%29.95 "Hg10 mi
7:00 PM82 °FClear.9 mph15%29.95 "Hg10 mi
5:00 PM90 °FSunny.10 mph12%29.92 "Hg10 mi
Weather by CustomWeather, © 2015

See weather overviewHow to use our weather pages